TimeEDT,TemperatureF,Dew PointF,Humidity,Sea Level PressureIn,VisibilityMPH,Wind Direction,Wind SpeedMPH,Gust SpeedMPH,PrecipitationIn,Events,Conditions,WindDirDegrees,DateUTC
12:53 AM,68.0,62.1,81,29.91,10.0,NNW,3.5,-,N/A,,Overcast,340,2013-07-25 04:53:00
1:53 AM,66.9,63.0,87,29.91,10.0,Calm,Calm,-,N/A,,Overcast,0,2013-07-25 05:53:00
2:53 AM,68.0,60.1,76,29.90,10.0,North,5.8,-,N/A,,Overcast,10,2013-07-25 06:53:00
3:53 AM,68.0,57.0,68,29.90,10.0,NNE,6.9,-,N/A,,Overcast,30,2013-07-25 07:53:00
4:53 AM,68.0,55.0,63,29.93,10.0,NNE,10.4,-,N/A,,Overcast,30,2013-07-25 08:53:00
5:53 AM,66.0,54.0,65,29.93,10.0,NNE,9.2,-,N/A,,Overcast,30,2013-07-25 09:53:00
6:53 AM,64.9,53.1,65,29.94,10.0,NE,12.7,19.6,N/A,,Partly Cloudy,40,2013-07-25 10:53:00
7:53 AM,64.9,53.1,65,29.97,10.0,NNE,10.4,-,N/A,,Mostly Cloudy,30,2013-07-25 11:53:00
8:53 AM,66.0,53.1,63,29.98,10.0,NNE,9.2,-,N/A,,Scattered Clouds,30,2013-07-25 12:53:00
9:53 AM,70.0,55.0,59,29.98,10.0,NE,9.2,-,N/A,,Clear,40,2013-07-25 13:53:00
10:53 AM,73.0,55.0,53,29.99,10.0,Variable,6.9,-,N/A,,Clear,0,2013-07-25 14:53:00
11:53 AM,73.9,54.0,50,30.00,10.0,ENE,5.8,-,N/A,,Partly Cloudy,60,2013-07-25 15:53:00
12:53 PM,75.9,55.9,50,29.99,10.0,East,12.7,-,N/A,,Partly Cloudy,80,2013-07-25 16:53:00
1:53 PM,77.0,55.9,48,29.99,10.0,Variable,6.9,-,N/A,,Clear,0,2013-07-25 17:53:00
2:53 PM,77.0,57.0,50,29.98,10.0,Calm,Calm,-,N/A,,Mostly Cloudy,0,2013-07-25 18:53:00
3:53 PM,77.0,57.9,52,29.98,10.0,ENE,6.9,-,N/A,,Mostly Cloudy,70,2013-07-25 19:53:00
4:53 PM,77.0,57.9,52,29.97,10.0,Variable,3.5,-,N/A,,Partly Cloudy,0,2013-07-25 20:53:00
5:53 PM,77.0,59.0,54,29.98,10.0,Variable,3.5,-,N/A,,Mostly Cloudy,0,2013-07-25 21:53:00
6:53 PM,77.0,60.1,56,29.99,10.0,Variable,3.5,-,N/A,,Clear,0,2013-07-25 22:53:00
7:53 PM,73.9,60.1,62,30.00,10.0,ENE,4.6,-,N/A,,Clear,70,2013-07-25 23:53:00
8:53 PM,71.1,59.0,66,30.01,10.0,ENE,4.6,-,N/A,,Clear,70,2013-07-26 00:53:00
9:53 PM,66.9,57.9,73,30.04,10.0,NNE,3.5,-,N/A,,Clear,20,2013-07-26 01:53:00
10:53 PM,64.0,57.9,80,30.05,10.0,Calm,Calm,-,N/A,,Clear,0,2013-07-26 02:53:00
11:53 PM,63.0,60.1,90,30.05,10.0,West,3.5,-,N/A,,Clear,280,2013-07-26 03:53:00